STARLINK-2703 (48452 NORAD) Tracking and Keplerian Element Data

This shows tracking and keplerian element data for the satellite.

Feedback or suggestion? Click here.




ElementValue
Catalog48452
NameSTARLINK-2703
Epoch Orbit366
Epoch Day210.91668981
Epoch Year2021
RAAN181.3284
Inclination53.0486
Eccentricity0.0001259
Argument of Perigee79.5696
Mean Anonmoly251.798
Mean Motion15.28709877
Decay Rate-0.00839153
L11 48452U 21040AA 21210.91668981 -.00839153 00000-0 -32142-1 0 9998
L22 48452 53.0486 181.3284 0001259 79.5696 251.7980 15.28709877 3668

Live tracking and technical data element details for STARLINK-2703 (NORAD 48452). STARLINK-2703 can be tracked NOW for your location showing map with azimuth and elevation plus other details from your city location.

Track the satellite on the map from your city or location and see movement details for azimuth, elevation, latitude, longitude, range, height, and movement on the map or in text.







IsCatalogInMostPopularTable: catalog: 48452, numindb: 27
Update: records affected: 1



GetName: 48452 STARLINK-2703

Hit Count: updated at: Sat, 31 Jul 2021 15:34:08 GMT